Regional Weather Roundup
Issued by NWS

Home | Current Version | Previous Version | Text Only | Print | Product List | Glossary Off
Versions: 1 2 3 4 5 6 7 8 9 10 11 12 13 14 15 16 17 18 19 20 21 22 23 24 25 26 27 28 29 30 31 32 33 34 35 36 37 38 39 40 41 42 43 44 45 46 47 48 49 50

621
ASUS45 KBOI 262110
RWRID

IDAHO REGIONAL WEATHER ROUNDUP
NATIONAL WEATHER SERVICE BOISE ID
300 PM MDT TUE JUL 26 2016

NOTE: "FAIR" INDICATES FEW OR NO CLOUDS BELOW 12000 FEET
WITH NO SIGNIFICANT WEATHER AND/OR OBSTRUCTIONS TO VISIBILITY

IDZ012-014-262200-
SOUTHWEST IDAHO


CITY           SKY/WX    TMP DP  RH WIND       PRES   REMARKS
BOISE          SUNNY     95  44  17 NW12      29.97F HX  91
CALDWELL       SUNNY     95  52  23 VRB3      29.95F HX  92
MOUNTAIN HOME  SUNNY     97  39  13 NW9       29.96F HX  93
$$

IDZ016-017-262200-
SOUTHCENTRAL IDAHO


CITY           SKY/WX    TMP DP  RH WIND       PRES   REMARKS
BURLEY         SUNNY     91  45  20 W8        30.02F
JEROME         SUNNY     89  48  24 W8        30.04F
TWIN FALLS     SUNNY     92  42  17 NW9       30.05F
$$

IDZ019>023-262200-
SOUTHEAST IDAHO


CITY           SKY/WX    TMP DP  RH WIND       PRES   REMARKS
IDAHO FALLS    SUNNY     93  28  10 N6        30.07F
POCATELLO      SUNNY     96  35  11 NW9       30.05F HX  91
REXBURG        SUNNY     92  30  11 CALM      30.08F
$$

IDZ006-010-011-018-031-032-262200-
CENTRAL IDAHO MOUNTAINS


CITY           SKY/WX    TMP DP  RH WIND       PRES   REMARKS
MCCALL         MOSUNNY   85  41  21 W7        30.13F
HAILEY         MOSUNNY   88  41  19 SW9       30.13F
STANLEY          N/A     86  29  12 W8G20     30.21S
SALMON         CLOUDY    86  45  23 E13       30.04F
CHALLIS        PTSUNNY   83  41  22 NE9       30.10S
$$

IDZ002-004-006-007-026-262200-
NORTHERN IDAHO


CITY           SKY/WX    TMP DP  RH WIND       PRES   REMARKS
LEWISTON       SUNNY     94  53  25 CALM      29.96F HX  91
LOWELL           N/A     94  55  26 VRB5      29.92F HX  92
COEUR D`ALENE  PTSUNNY   81  57  44 NE13      30.03F
MULLAN PASS    MOSUNNY   74  48  39 VRB6      30.25F
$$




USA.gov is the U.S. government's official web portal to all federal, state and local government web resources and services.